When you browse on this site, cookies collect data to enhance your experience and personalize the content and advertising you see.
Visit our Privacy Policy to learn more. By continuing to use the site, you agree to this use of cookies and data.
  • In Switzerland
  • List of Countries
  • For 7 days
  • Water Temperature
  • Satellite Maps
  • Weather Map
  • Weather Widgets
  • user-avatar
    Login

    Hourly Weather Kniatowy

    Today, 22 May, Wednesday

    Time Temperature Precipitation Wind Pressure Humidity
    00:00 +14°C° 0 mm 2 mps 735 mmHg 95%
    01:00 +13°C° 0 mm 3 mps 735 mmHg 96%
    02:00 +13°C° 0 mm 2 mps 735 mmHg 96%
    03:00 +12°C° 0 mm 2 mps 735 mmHg 96%
    04:00 +12°C° 0 mm 2 mps 735 mmHg 96%
    05:00 +12°C° 0 mm 3 mps 736 mmHg 93%
    06:00 +13°C° 0 mm 3 mps 736 mmHg 90%
    07:00 +14°C° 0 mm 4 mps 736 mmHg 86%
    08:00 +15°C° 0 mm 4 mps 736 mmHg 81%
    09:00 +16°C° 0 mm 5 mps 737 mmHg 77%
    10:00 +17°C° 0 mm 5 mps 737 mmHg 72%
    11:00 +19°C° 0.3 mm 5 mps 737 mmHg 71%
    12:00 +19°C° 0.3 mm 5 mps 737 mmHg 69%
    13:00 +20°C° 0.3 mm 5 mps 738 mmHg 67%
    14:00 +20°C° 0.9 mm 5 mps 738 mmHg 70%
    15:00 +19°C° 0.9 mm 6 mps 738 mmHg 74%
    16:00 +19°C° 0.9 mm 6 mps 738 mmHg 77%
    17:00 +17°C° 1.1 mm 6 mps 738 mmHg 82%
    18:00 +16°C° 1.1 mm 7 mps 739 mmHg 86%
    19:00 +15°C° 1.1 mm 7 mps 739 mmHg 90%
    20:00 +15°C° 0.5 mm 8 mps 739 mmHg 91%
    21:00 +13°C° 0.5 mm 8 mps 740 mmHg 93%
    22:00 +13°C° 0.5 mm 8 mps 740 mmHg 94%
    23:00 +12°C° 0.2 mm 8 mps 740 mmHg 94%

    Tomorrow, 23 May, Thursday

    Time Temperature Precipitation Wind Pressure Humidity
    00:00 +12°C° 0.2 mm 7 mps 741 mmHg 94%
    01:00 +12°C° 0.2 mm 7 mps 741 mmHg 94%
    02:00 +12°C° 0.1 mm 7 mps 741 mmHg 94%
    03:00 +11°C° 0.1 mm 7 mps 741 mmHg 94%
    04:00 +11°C° 0.1 mm 7 mps 741 mmHg 94%
    05:00 +11°C° 0.1 mm 7 mps 742 mmHg 94%
    06:00 +11°C° 0.1 mm 7 mps 742 mmHg 94%
    07:00 +10°C° 0.1 mm 7 mps 743 mmHg 93%
    08:00 +11°C° 0.1 mm 7 mps 743 mmHg 92%
    09:00 +11°C° 0.1 mm 7 mps 743 mmHg 91%
    10:00 +11°C° 0.1 mm 7 mps 744 mmHg 90%
    11:00 +11°C° 0 mm 7 mps 744 mmHg 88%
    12:00 +12°C° 0 mm 7 mps 744 mmHg 87%
    13:00 +12°C° 0 mm 7 mps 744 mmHg 85%
    14:00 +13°C° 0 mm 6 mps 744 mmHg 83%
    15:00 +14°C° 0 mm 5 mps 744 mmHg 81%
    16:00 +14°C° 0 mm 4 mps 744 mmHg 80%
    17:00 +14°C° 0 mm 4 mps 744 mmHg 80%
    18:00 +14°C° 0 mm 4 mps 744 mmHg 80%
    19:00 +14°C° 0 mm 3 mps 744 mmHg 80%
    20:00 +14°C° 0 mm 3 mps 745 mmHg 76%
    21:00 +13°C° 0 mm 3 mps 745 mmHg 73%
    22:00 +13°C° 0 mm 4 mps 745 mmHg 70%
    23:00 +12°C° 0 mm 4 mps 745 mmHg 68%

    Day after tomorrow, 24 May, Friday

    Time Temperature Precipitation Wind Pressure Humidity
    00:00 +12°C° 0 mm 4 mps 745 mmHg 65%
    01:00 +11°C° 0 mm 4 mps 745 mmHg 62%
    02:00 +10°C° 0 mm 3 mps 745 mmHg 66%
    03:00 +9°C° 0 mm 3 mps 745 mmHg 70%
    04:00 +7°C° 0 mm 3 mps 745 mmHg 74%
    05:00 +9°C° 0 mm 3 mps 745 mmHg 74%
    06:00 +10°C° 0 mm 3 mps 745 mmHg 74%
    07:00 +11°C° 0 mm 3 mps 745 mmHg 74%
    08:00 +13°C° 0 mm 3 mps 745 mmHg 69%
    09:00 +16°C° 0 mm 3 mps 745 mmHg 63%
    10:00 +17°C° 0 mm 3 mps 745 mmHg 58%
    11:00 +18°C° 0 mm 4 mps 744 mmHg 56%
    12:00 +19°C° 0 mm 4 mps 744 mmHg 54%
    13:00 +20°C° 0 mm 4 mps 744 mmHg 53%
    14:00 +20°C° 0 mm 3 mps 743 mmHg 54%
    15:00 +20°C° 0 mm 3 mps 743 mmHg 55%
    16:00 +20°C° 0 mm 3 mps 743 mmHg 57%
    17:00 +19°C° 0 mm 2 mps 743 mmHg 63%
    18:00 +18°C° 0 mm 2 mps 742 mmHg 68%
    19:00 +18°C° 0 mm 1 mps 742 mmHg 74%
    20:00 +16°C° 0 mm 1 mps 742 mmHg 77%
    21:00 +15°C° 0 mm 1 mps 743 mmHg 81%
    22:00 +13°C° 0 mm 0 mps 743 mmHg 84%
    23:00 +13°C° 0 mm 1 mps 743 mmHg 85%

    25 May, Saturday

    Time Temperature Precipitation Wind Pressure Humidity
    00:00 +13°C° 0 mm 1 mps 743 mmHg 85%
    01:00 +13°C° 0 mm 2 mps 742 mmHg 86%
    02:00 +12°C° 0 mm 2 mps 742 mmHg 87%
    03:00 +12°C° 0 mm 2 mps 742 mmHg 88%
    04:00 +10°C° 0 mm 2 mps 742 mmHg 89%
    05:00 +13°C° 0 mm 2 mps 742 mmHg 85%
    06:00 +13°C° 0 mm 3 mps 742 mmHg 80%
    07:00 +16°C° 0 mm 3 mps 742 mmHg 76%
    08:00 +17°C° 0.1 mm 3 mps 742 mmHg 71%
    09:00 +19°C° 0.1 mm 4 mps 743 mmHg 67%
    10:00 +20°C° 0.1 mm 4 mps 743 mmHg 63%
    11:00 +20°C° 0.2 mm 4 mps 742 mmHg 63%
    12:00 +20°C° 0.2 mm 4 mps 742 mmHg 62%
    13:00 +21°C° 0.2 mm 5 mps 742 mmHg 62%
    14:00 +20°C° 0.1 mm 4 mps 742 mmHg 64%
    15:00 +20°C° 0.1 mm 4 mps 742 mmHg 66%
    16:00 +20°C° 0.1 mm 4 mps 742 mmHg 68%
    17:00 +19°C° 0 mm 3 mps 742 mmHg 70%
    18:00 +18°C° 0 mm 2 mps 742 mmHg 71%
    19:00 +17°C° 0 mm 2 mps 742 mmHg 73%
    20:00 +16°C° 0 mm 2 mps 742 mmHg 77%
    21:00 +14°C° 0 mm 2 mps 742 mmHg 82%
    22:00 +13°C° 0 mm 2 mps 743 mmHg 86%
    23:00 +12°C° 0 mm 2 mps 743 mmHg 88%

    26 May, Sunday

    Time Temperature Precipitation Wind Pressure Humidity
    00:00 +10°C° 0 mm 2 mps 743 mmHg 90%
    01:00 +10°C° 0 mm 1 mps 742 mmHg 92%
    02:00 +9°C° 0 mm 2 mps 742 mmHg 92%
    03:00 +9°C° 0 mm 2 mps 742 mmHg 92%
    04:00 +9°C° 0 mm 2 mps 742 mmHg 93%
    05:00 +10°C° 0 mm 3 mps 742 mmHg 87%
    06:00 +11°C° 0 mm 4 mps 742 mmHg 82%
    07:00 +13°C° 0 mm 4 mps 742 mmHg 77%
    08:00 +13°C° 0 mm 5 mps 742 mmHg 73%
    09:00 +14°C° 0 mm 6 mps 742 mmHg 69%
    10:00 +15°C° 0 mm 6 mps 742 mmHg 65%
    11:00 +15°C° 0 mm 7 mps 742 mmHg 63%
    12:00 +15°C° 0 mm 7 mps 741 mmHg 60%
    13:00 +15°C° 0 mm 7 mps 741 mmHg 57%
    14:00 +15°C° 0 mm 7 mps 741 mmHg 57%
    15:00 +16°C° 0 mm 7 mps 741 mmHg 57%
    16:00 +16°C° 0 mm 7 mps 741 mmHg 56%
    17:00 +15°C° 0 mm 6 mps 741 mmHg 62%
    18:00 +14°C° 0 mm 5 mps 741 mmHg 67%
    19:00 +13°C° 0 mm 4 mps 741 mmHg 73%
    20:00 +11°C° 0 mm 4 mps 742 mmHg 76%
    21:00 +10°C° 0 mm 3 mps 742 mmHg 79%
    22:00 +9°C° 0 mm 3 mps 742 mmHg 82%
    23:00 +8°C° 0 mm 3 mps 743 mmHg 86%

    27 May, Monday

    Time Temperature Precipitation Wind Pressure Humidity
    00:00 +8°C° 0 mm 3 mps 743 mmHg 90%
    01:00 +7°C° 0 mm 3 mps 743 mmHg 93%
    02:00 +7°C° 0 mm 3 mps 743 mmHg 94%
    03:00 +7°C° 0 mm 3 mps 743 mmHg 95%
    04:00 +5°C° 0 mm 3 mps 743 mmHg 96%
    05:00 +8°C° 0 mm 3 mps 743 mmHg 90%
    06:00 +10°C° 0 mm 3 mps 743 mmHg 83%
    07:00 +11°C° 0 mm 3 mps 743 mmHg 77%
    08:00 +13°C° 0 mm 3 mps 742 mmHg 73%
    09:00 +14°C° 0 mm 3 mps 742 mmHg 69%
    10:00 +17°C° 0 mm 3 mps 742 mmHg 65%
    11:00 +18°C° 0 mm 3 mps 742 mmHg 63%
    12:00 +19°C° 0 mm 3 mps 741 mmHg 61%
    13:00 +20°C° 0 mm 3 mps 741 mmHg 59%
    14:00 +20°C° 0 mm 3 mps 740 mmHg 58%
    15:00 +21°C° 0 mm 3 mps 740 mmHg 58%
    16:00 +22°C° 0 mm 3 mps 739 mmHg 57%
    17:00 +21°C° 0 mm 3 mps 739 mmHg 63%
    18:00 +20°C° 0 mm 3 mps 739 mmHg 68%
    19:00 +18°C° 0 mm 2 mps 738 mmHg 74%
    20:00 +18°C° 0 mm 3 mps 738 mmHg 77%
    21:00 +17°C° 0 mm 3 mps 738 mmHg 80%
    22:00 +16°C° 0 mm 3 mps 738 mmHg 82%
    23:00 +14°C° 0 mm 3 mps 738 mmHg 85%
    Show more